Back to catalog

STARLINK-33950

AliveCommunicationsVLEO
NORAD 63701·PAYLOAD·🇺🇸 United States

Launched Apr 28, 2025 from Vandenberg Space Force Base

Loading…

Next Passes (next 24 hours)

TLE

FreshSource: CelesTrak SupGP

Epoch: Sep 14, 2026, 20:48 UTC

1 63701C 25087E   26257.86715278  .00013331  00000+0  42878-3 0  2574
2 63701  53.1588  59.7684 0001271  83.0533 101.5480 15.31689384    19

Track STARLINK-33950 in real time with AllMySat

Download on the App Store